Year,Month,Day,Hour,Minute,Value (Times are PST for temperature in C)
2018,09,14,00,00,13.70
2018,09,14,00,01,13.70
2018,09,14,00,02,13.70
2018,09,14,00,03,13.70
2018,09,14,00,04,13.70
2018,09,14,00,05,13.70
2018,09,14,00,06,13.70
2018,09,14,00,07,13.70
2018,09,14,00,08,13.70
2018,09,14,00,09,13.70
2018,09,14,00,10,13.70
2018,09,14,00,11,13.70
2018,09,14,00,12,13.70
2018,09,14,00,13,13.70
2018,09,14,00,14,13.70
2018,09,14,00,15,13.70
2018,09,14,00,16,13.70
2018,09,14,00,17,13.70
2018,09,14,00,18,13.70
2018,09,14,00,19,13.70
2018,09,14,00,20,13.70
2018,09,14,00,21,13.70
2018,09,14,00,22,13.70
2018,09,14,00,23,13.70
2018,09,14,00,24,13.70
2018,09,14,00,25,13.70
2018,09,14,00,26,13.70
2018,09,14,00,27,13.70
2018,09,14,00,28,13.60
2018,09,14,00,29,13.60
2018,09,14,00,30,13.60
2018,09,14,00,31,13.60
2018,09,14,00,32,13.60
2018,09,14,00,33,13.50
2018,09,14,00,34,13.50
2018,09,14,00,35,13.50
2018,09,14,00,36,13.50
2018,09,14,00,37,13.40
2018,09,14,00,38,13.40
2018,09,14,00,39,13.40
2018,09,14,00,40,13.30
2018,09,14,00,41,13.30
2018,09,14,00,42,13.30
2018,09,14,00,43,13.30
2018,09,14,00,44,13.30
2018,09,14,00,45,13.30
2018,09,14,00,46,13.30
2018,09,14,00,47,13.30
2018,09,14,00,48,13.20
2018,09,14,00,49,13.20
2018,09,14,00,50,13.20
2018,09,14,00,51,13.20
2018,09,14,00,52,13.10
2018,09,14,00,53,13.10
2018,09,14,00,54,13.10
2018,09,14,00,55,13.10
2018,09,14,00,56,13.10
2018,09,14,00,57,13.00
2018,09,14,00,58,13.00
2018,09,14,00,59,13.00
2018,09,14,01,00,13.00
2018,09,14,01,01,12.90
2018,09,14,01,02,12.90
2018,09,14,01,03,12.90
2018,09,14,01,04,12.90
2018,09,14,01,05,12.80
2018,09,14,01,06,12.80
2018,09,14,01,07,12.80
2018,09,14,01,08,12.80
2018,09,14,01,09,12.80
2018,09,14,01,10,12.80
2018,09,14,01,11,12.80
2018,09,14,01,12,12.80
2018,09,14,01,13,12.70
2018,09,14,01,14,12.70
2018,09,14,01,15,12.70
2018,09,14,01,16,12.70
2018,09,14,01,17,12.70
2018,09,14,01,18,12.60
2018,09,14,01,19,12.60
2018,09,14,01,20,12.60
2018,09,14,01,21,12.60
2018,09,14,01,22,12.60
2018,09,14,01,23,12.60
2018,09,14,01,24,12.60
2018,09,14,01,25,12.60
2018,09,14,01,26,12.60
2018,09,14,01,27,12.60
2018,09,14,01,28,12.60
2018,09,14,01,29,12.60
2018,09,14,01,30,12.60
2018,09,14,01,31,12.60
2018,09,14,01,32,12.60
2018,09,14,01,33,12.60
2018,09,14,01,34,12.60
2018,09,14,01,35,12.60
2018,09,14,01,36,12.60
2018,09,14,01,37,12.60
2018,09,14,01,38,12.60
2018,09,14,01,39,12.50
2018,09,14,01,40,12.60
2018,09,14,01,41,12.50
2018,09,14,01,42,12.50
2018,09,14,01,43,12.50
2018,09,14,01,44,12.50
2018,09,14,01,45,12.50
2018,09,14,01,46,12.50
2018,09,14,01,47,12.50
2018,09,14,01,48,12.50
2018,09,14,01,49,12.50
2018,09,14,01,50,12.50
2018,09,14,01,51,12.50
2018,09,14,01,52,12.50
2018,09,14,01,53,12.50
2018,09,14,01,54,12.50
2018,09,14,01,55,12.40
2018,09,14,01,56,12.40
2018,09,14,01,57,12.40
2018,09,14,01,58,12.40
2018,09,14,01,59,12.40
2018,09,14,02,00,12.40
2018,09,14,02,01,12.40
2018,09,14,02,02,12.40
2018,09,14,02,03,12.40
2018,09,14,02,04,12.40
2018,09,14,02,05,12.40
2018,09,14,02,06,12.30
2018,09,14,02,07,12.30
2018,09,14,02,08,12.30
2018,09,14,02,09,12.30
2018,09,14,02,10,12.30
2018,09,14,02,11,12.30
2018,09,14,02,12,12.30
2018,09,14,02,13,12.30
2018,09,14,02,14,12.30
2018,09,14,02,15,12.30
2018,09,14,02,16,12.20
2018,09,14,02,17,12.20
2018,09,14,02,18,12.20
2018,09,14,02,19,12.20
2018,09,14,02,20,12.20
2018,09,14,02,21,12.10
2018,09,14,02,22,12.10
2018,09,14,02,23,12.10
2018,09,14,02,24,12.00
2018,09,14,02,25,12.00
2018,09,14,02,26,11.90
2018,09,14,02,27,11.90
2018,09,14,02,28,11.90
2018,09,14,02,29,11.80
2018,09,14,02,30,11.80
2018,09,14,02,31,11.80
2018,09,14,02,32,11.80
2018,09,14,02,33,11.80
2018,09,14,02,34,11.80
2018,09,14,02,35,11.70
2018,09,14,02,36,11.70
2018,09,14,02,37,11.70
2018,09,14,02,38,11.60
2018,09,14,02,39,11.60
2018,09,14,02,40,11.60
2018,09,14,02,41,11.60
2018,09,14,02,42,11.60
2018,09,14,02,43,11.60
2018,09,14,02,44,11.60
2018,09,14,02,45,11.50
2018,09,14,02,46,11.40
2018,09,14,02,47,11.40
2018,09,14,02,48,11.40
2018,09,14,02,49,11.40
2018,09,14,02,50,11.40
2018,09,14,02,51,11.40
2018,09,14,02,52,11.40
2018,09,14,02,53,11.30
2018,09,14,02,54,11.30
2018,09,14,02,55,11.30
2018,09,14,02,56,11.30
2018,09,14,02,57,11.30
2018,09,14,02,58,11.30
2018,09,14,02,59,11.20
2018,09,14,03,00,11.20
2018,09,14,03,01,11.20
2018,09,14,03,02,11.20
2018,09,14,03,03,11.20
2018,09,14,03,04,11.10
2018,09,14,03,05,11.10
2018,09,14,03,06,11.10
2018,09,14,03,07,11.10
2018,09,14,03,08,11.10
2018,09,14,03,09,11.10
2018,09,14,03,10,11.10
2018,09,14,03,11,11.10
2018,09,14,03,12,11.10
2018,09,14,03,13,11.10
2018,09,14,03,14,11.10
2018,09,14,03,15,11.10
2018,09,14,03,16,11.10
2018,09,14,03,17,11.10
2018,09,14,03,18,11.10
2018,09,14,03,19,11.10
2018,09,14,03,20,11.10
2018,09,14,03,21,11.10
2018,09,14,03,22,11.00
2018,09,14,03,23,10.90
2018,09,14,03,24,10.90
2018,09,14,03,25,10.90
2018,09,14,03,26,10.90
2018,09,14,03,27,10.90
2018,09,14,03,28,10.90
2018,09,14,03,29,10.90
2018,09,14,03,30,10.90
2018,09,14,03,31,10.90
2018,09,14,03,32,10.90
2018,09,14,03,33,10.90
2018,09,14,03,34,10.80
2018,09,14,03,35,10.80
2018,09,14,03,36,10.80
2018,09,14,03,37,10.80
2018,09,14,03,38,10.80
2018,09,14,03,39,10.80
2018,09,14,03,40,10.80
2018,09,14,03,41,10.80
2018,09,14,03,42,10.80
2018,09,14,03,43,10.70
2018,09,14,03,44,10.70
2018,09,14,03,45,10.70
2018,09,14,03,46,10.70
2018,09,14,03,47,10.70
2018,09,14,03,48,10.70
2018,09,14,03,49,10.70
2018,09,14,03,50,10.70
2018,09,14,03,51,10.70
2018,09,14,03,52,10.70
2018,09,14,03,53,10.70
2018,09,14,03,54,10.70
2018,09,14,03,55,10.70
2018,09,14,03,56,10.70
2018,09,14,03,57,10.70
2018,09,14,03,58,10.60
2018,09,14,03,59,10.60
2018,09,14,04,00,10.60
2018,09,14,04,01,10.60
2018,09,14,04,02,10.60
2018,09,14,04,03,10.60
2018,09,14,04,04,10.60
2018,09,14,04,05,10.60
2018,09,14,04,06,10.50
2018,09,14,04,07,10.40
2018,09,14,04,08,10.40
2018,09,14,04,09,10.40
2018,09,14,04,10,10.40
2018,09,14,04,11,10.40
2018,09,14,04,12,10.40
2018,09,14,04,13,10.30
2018,09,14,04,14,10.30
2018,09,14,04,15,10.30
2018,09,14,04,16,10.30
2018,09,14,04,17,10.30
2018,09,14,04,18,10.20
2018,09,14,04,19,10.20
2018,09,14,04,20,10.20
2018,09,14,04,21,10.20
2018,09,14,04,22,10.20
2018,09,14,04,23,10.20
2018,09,14,04,24,10.20
2018,09,14,04,25,10.10
2018,09,14,04,26,10.10
2018,09,14,04,27,10.10
2018,09,14,04,28,10.10
2018,09,14,04,29,10.10
2018,09,14,04,30,10.10
2018,09,14,04,31,10.00
2018,09,14,04,32,9.90
2018,09,14,04,33,9.90
2018,09,14,04,34,9.90
2018,09,14,04,35,9.90
2018,09,14,04,36,9.90
2018,09,14,04,37,9.90
2018,09,14,04,38,9.90
2018,09,14,04,39,9.90
2018,09,14,04,40,9.90
2018,09,14,04,41,9.90
2018,09,14,04,42,9.90
2018,09,14,04,43,9.90
2018,09,14,04,44,9.90
2018,09,14,04,45,9.90
2018,09,14,04,46,9.80
2018,09,14,04,47,9.80
2018,09,14,04,48,9.90
2018,09,14,04,49,9.90
2018,09,14,04,50,9.90
2018,09,14,04,51,9.80
2018,09,14,04,52,9.80
2018,09,14,04,53,9.80
2018,09,14,04,54,9.80
2018,09,14,04,55,9.80
2018,09,14,04,56,9.80
2018,09,14,04,57,9.80
2018,09,14,04,58,9.80
2018,09,14,04,59,9.80
2018,09,14,05,00,9.80
2018,09,14,05,01,9.70
2018,09,14,05,02,9.70
2018,09,14,05,03,9.70
2018,09,14,05,04,9.70
2018,09,14,05,05,9.70
2018,09,14,05,06,9.60
2018,09,14,05,07,9.60
2018,09,14,05,08,9.60
2018,09,14,05,09,9.50
2018,09,14,05,10,9.50
2018,09,14,05,11,9.50
2018,09,14,05,12,9.50
2018,09,14,05,13,9.50
2018,09,14,05,14,9.50
2018,09,14,05,15,9.50
2018,09,14,05,16,9.50
2018,09,14,05,17,9.50
2018,09,14,05,18,9.40
2018,09,14,05,19,9.40
2018,09,14,05,20,9.40
2018,09,14,05,21,9.30
2018,09,14,05,22,9.30
2018,09,14,05,23,9.30
2018,09,14,05,24,9.30
2018,09,14,05,25,9.20
2018,09,14,05,26,9.20
2018,09,14,05,27,9.20
2018,09,14,05,28,9.20
2018,09,14,05,29,9.20
2018,09,14,05,30,9.20
2018,09,14,05,31,9.20
2018,09,14,05,32,9.20
2018,09,14,05,33,9.20
2018,09,14,05,34,9.20
2018,09,14,05,35,9.20
2018,09,14,05,36,9.20
2018,09,14,05,37,9.20
2018,09,14,05,38,9.20
2018,09,14,05,39,9.10
2018,09,14,05,40,9.10
2018,09,14,05,41,9.10
2018,09,14,05,42,9.10
2018,09,14,05,43,9.10
2018,09,14,05,44,9.10
2018,09,14,05,45,9.10
2018,09,14,05,46,9.10
2018,09,14,05,47,9.00
2018,09,14,05,48,9.00
2018,09,14,05,49,9.00
2018,09,14,05,50,9.00
2018,09,14,05,51,9.00
2018,09,14,05,52,9.00
2018,09,14,05,53,9.10
2018,09,14,05,54,9.10
2018,09,14,05,55,9.10
2018,09,14,05,56,9.10
2018,09,14,05,57,9.10
2018,09,14,05,58,9.10
2018,09,14,05,59,9.10
2018,09,14,06,00,9.00
2018,09,14,06,01,9.00
2018,09,14,06,02,9.00
2018,09,14,06,03,9.00
2018,09,14,06,04,9.00
2018,09,14,06,05,9.00
2018,09,14,06,06,9.00
2018,09,14,06,07,9.00
2018,09,14,06,08,9.00
2018,09,14,06,09,8.90
2018,09,14,06,10,8.90
2018,09,14,06,11,8.90
2018,09,14,06,12,8.90
2018,09,14,06,13,9.00
2018,09,14,06,14,9.00
2018,09,14,06,15,9.00
2018,09,14,06,16,9.00
2018,09,14,06,17,9.00
2018,09,14,06,18,9.00
2018,09,14,06,19,9.00
2018,09,14,06,20,9.00
2018,09,14,06,21,9.00
2018,09,14,06,22,9.10
2018,09,14,06,23,9.10
2018,09,14,06,24,9.10
2018,09,14,06,25,9.10
2018,09,14,06,26,9.10
2018,09,14,06,27,9.10
2018,09,14,06,28,9.10
2018,09,14,06,29,9.10
2018,09,14,06,30,9.10
2018,09,14,06,31,9.10
2018,09,14,06,32,9.10
2018,09,14,06,33,9.10
2018,09,14,06,34,9.10
2018,09,14,06,35,9.10
2018,09,14,06,36,9.00
2018,09,14,06,37,9.00
2018,09,14,06,38,9.00
2018,09,14,06,39,9.00
2018,09,14,06,40,8.90
2018,09,14,06,41,8.90
2018,09,14,06,42,8.90
2018,09,14,06,43,8.90
2018,09,14,06,44,8.90
2018,09,14,06,45,8.90
2018,09,14,06,46,8.90
2018,09,14,06,47,8.90
2018,09,14,06,48,8.90
2018,09,14,06,49,8.90
2018,09,14,06,50,8.90
2018,09,14,06,51,8.90
2018,09,14,06,52,8.90
2018,09,14,06,53,8.90
2018,09,14,06,54,8.90
2018,09,14,06,55,8.90
2018,09,14,06,56,8.80
2018,09,14,06,57,8.80
2018,09,14,06,58,8.80
2018,09,14,06,59,8.80
2018,09,14,07,00,8.70
2018,09,14,07,01,8.70
2018,09,14,07,02,8.70
2018,09,14,07,03,8.70
2018,09,14,07,04,8.70
2018,09,14,07,05,8.70
2018,09,14,07,06,8.70
2018,09,14,07,07,8.70
2018,09,14,07,08,8.70
2018,09,14,07,09,8.70
2018,09,14,07,10,8.70
2018,09,14,07,11,8.80
2018,09,14,07,12,8.80
2018,09,14,07,13,8.80
2018,09,14,07,14,8.80
2018,09,14,07,15,8.80
2018,09,14,07,16,8.80
2018,09,14,07,17,8.90
2018,09,14,07,18,8.90
2018,09,14,07,19,8.90
2018,09,14,07,20,8.90
2018,09,14,07,21,8.90
2018,09,14,07,22,8.90
2018,09,14,07,23,8.90
2018,09,14,07,24,9.00
2018,09,14,07,25,9.00
2018,09,14,07,26,9.00
2018,09,14,07,27,9.00
2018,09,14,07,28,9.00
2018,09,14,07,29,9.00
2018,09,14,07,30,9.00
2018,09,14,07,31,9.00
2018,09,14,07,32,9.00
2018,09,14,07,33,9.00
2018,09,14,07,34,9.10
2018,09,14,07,35,9.10
2018,09,14,07,36,9.10
2018,09,14,07,37,9.10
2018,09,14,07,38,9.10
2018,09,14,07,39,9.20
2018,09,14,07,40,9.20
2018,09,14,07,41,9.20
2018,09,14,07,42,9.20
2018,09,14,07,43,9.20
2018,09,14,07,44,9.30
2018,09,14,07,45,9.30
2018,09,14,07,46,9.30
2018,09,14,07,47,9.30
2018,09,14,07,48,9.40
2018,09,14,07,49,9.40
2018,09,14,07,50,9.40
2018,09,14,07,51,9.50
2018,09,14,07,52,9.50
2018,09,14,07,53,9.60
2018,09,14,07,54,9.60
2018,09,14,07,55,9.60
2018,09,14,07,56,9.60
2018,09,14,07,57,9.70
2018,09,14,07,58,9.70
2018,09,14,07,59,9.70
2018,09,14,08,00,9.70
2018,09,14,08,01,9.70
2018,09,14,08,02,9.70
2018,09,14,08,03,9.70
2018,09,14,08,04,9.70
2018,09,14,08,05,9.70
2018,09,14,08,06,9.70
2018,09,14,08,07,9.70
2018,09,14,08,08,9.70
2018,09,14,08,09,9.80
2018,09,14,08,10,9.80
2018,09,14,08,11,9.80
2018,09,14,08,12,9.90
2018,09,14,08,13,9.90
2018,09,14,08,14,9.90
2018,09,14,08,15,9.90
2018,09,14,08,16,9.90
2018,09,14,08,17,10.00
2018,09,14,08,18,10.10
2018,09,14,08,19,10.10
2018,09,14,08,20,10.10
2018,09,14,08,21,10.20
2018,09,14,08,22,10.20
2018,09,14,08,23,10.30
2018,09,14,08,24,10.40
2018,09,14,08,25,10.40
2018,09,14,08,26,10.40
2018,09,14,08,27,10.50
2018,09,14,08,28,10.60
2018,09,14,08,29,10.60
2018,09,14,08,30,10.70
2018,09,14,08,31,10.70
2018,09,14,08,32,10.80
2018,09,14,08,33,10.80
2018,09,14,08,34,10.90
2018,09,14,08,35,10.90
2018,09,14,08,36,10.90
2018,09,14,08,37,11.10
2018,09,14,08,38,11.10
2018,09,14,08,39,11.20
2018,09,14,08,40,11.30
2018,09,14,08,41,11.40
2018,09,14,08,42,11.40
2018,09,14,08,43,11.60
2018,09,14,08,44,11.60
2018,09,14,08,45,11.70
2018,09,14,08,46,11.80
2018,09,14,08,47,11.80
2018,09,14,08,48,11.90
2018,09,14,08,49,12.00
2018,09,14,08,50,12.00
2018,09,14,08,51,12.10
2018,09,14,08,52,12.10
2018,09,14,08,53,12.10
2018,09,14,08,54,12.20
2018,09,14,08,55,12.20
2018,09,14,08,56,12.30
2018,09,14,08,57,12.30
2018,09,14,08,58,12.30
2018,09,14,08,59,12.40
2018,09,14,09,00,12.40
2018,09,14,09,01,12.50
2018,09,14,09,02,12.50
2018,09,14,09,03,12.50
2018,09,14,09,04,12.50
2018,09,14,09,05,12.50
2018,09,14,09,06,12.60
2018,09,14,09,07,12.60
2018,09,14,09,08,12.60
2018,09,14,09,09,12.50
2018,09,14,09,10,12.50
2018,09,14,09,11,12.50
2018,09,14,09,12,12.60
2018,09,14,09,13,12.60
2018,09,14,09,14,12.60
2018,09,14,09,15,12.60
2018,09,14,09,16,12.60
2018,09,14,09,17,12.60
2018,09,14,09,18,12.60
2018,09,14,09,19,12.60
2018,09,14,09,20,12.60
2018,09,14,09,21,12.70
2018,09,14,09,22,12.70
2018,09,14,09,23,12.70
2018,09,14,09,24,12.70
2018,09,14,09,25,12.70
2018,09,14,09,26,12.70
2018,09,14,09,27,12.70
2018,09,14,09,28,12.70
2018,09,14,09,29,12.70
2018,09,14,09,30,12.70
2018,09,14,09,31,12.70
2018,09,14,09,32,12.80
2018,09,14,09,33,12.80
2018,09,14,09,34,12.90
2018,09,14,09,35,13.00
2018,09,14,09,36,13.10
2018,09,14,09,37,13.30
2018,09,14,09,38,13.30
2018,09,14,09,39,13.40
2018,09,14,09,40,13.50
2018,09,14,09,41,13.50
2018,09,14,09,42,13.60
2018,09,14,09,43,13.60
2018,09,14,09,44,13.60
2018,09,14,09,45,13.70
2018,09,14,09,46,13.70
2018,09,14,09,47,13.80
2018,09,14,09,48,13.90
2018,09,14,09,49,13.90
2018,09,14,09,50,14.00
2018,09,14,09,51,14.00
2018,09,14,09,52,14.10
2018,09,14,09,53,14.20
2018,09,14,09,54,14.20
2018,09,14,09,55,14.20
2018,09,14,09,56,14.30
2018,09,14,09,57,14.30
2018,09,14,09,58,14.40
2018,09,14,09,59,14.40
2018,09,14,10,00,14.50
2018,09,14,10,01,14.60
2018,09,14,10,02,14.60
2018,09,14,10,03,14.60
2018,09,14,10,04,14.60
2018,09,14,10,05,14.60
2018,09,14,10,06,14.60
2018,09,14,10,07,14.60
2018,09,14,10,08,14.70
2018,09,14,10,09,14.70
2018,09,14,10,10,14.70
2018,09,14,10,11,14.80
2018,09,14,10,12,14.80
2018,09,14,10,13,14.80
2018,09,14,10,14,14.90
2018,09,14,10,15,14.90
2018,09,14,10,16,14.90
2018,09,14,10,17,14.90
2018,09,14,10,18,14.90
2018,09,14,10,19,14.90
2018,09,14,10,20,14.90
2018,09,14,10,21,14.90
2018,09,14,10,22,14.80
2018,09,14,10,23,14.80
2018,09,14,10,24,14.80
2018,09,14,10,25,14.80
2018,09,14,10,26,14.80
2018,09,14,10,27,14.70
2018,09,14,10,28,14.60
2018,09,14,10,29,14.50
2018,09,14,10,30,14.40
2018,09,14,10,31,14.40
2018,09,14,10,32,14.40
2018,09,14,10,33,14.40
2018,09,14,10,34,14.40
2018,09,14,10,35,14.50
2018,09,14,10,36,14.40
2018,09,14,10,37,14.40
2018,09,14,10,38,14.50
2018,09,14,10,39,14.50
2018,09,14,10,40,14.50
2018,09,14,10,41,14.50
2018,09,14,10,42,14.50
2018,09,14,10,43,14.50
2018,09,14,10,44,14.50
2018,09,14,10,45,14.60
2018,09,14,10,46,14.60
2018,09,14,10,47,14.70
2018,09,14,10,48,14.80
2018,09,14,10,49,14.80
2018,09,14,10,50,14.90
2018,09,14,10,51,15.00
2018,09,14,10,52,15.10
2018,09,14,10,53,15.30
2018,09,14,10,54,15.40
2018,09,14,10,55,15.50
2018,09,14,10,56,15.50
2018,09,14,10,57,15.60
2018,09,14,10,58,15.60
2018,09,14,10,59,15.70
2018,09,14,11,00,15.70
2018,09,14,11,01,15.80
2018,09,14,11,02,15.80
2018,09,14,11,03,15.90
2018,09,14,11,04,16.00
2018,09,14,11,05,16.10
2018,09,14,11,06,16.10
2018,09,14,11,07,16.10
2018,09,14,11,08,16.10
2018,09,14,11,09,16.10
2018,09,14,11,10,16.10
2018,09,14,11,11,16.10
2018,09,14,11,12,16.20
2018,09,14,11,13,16.20
2018,09,14,11,14,16.30
2018,09,14,11,15,16.40
2018,09,14,11,16,16.50
2018,09,14,11,17,16.70
2018,09,14,11,18,16.70
2018,09,14,11,19,16.90
2018,09,14,11,20,17.00
2018,09,14,11,21,17.20
2018,09,14,11,22,17.30
2018,09,14,11,23,17.50
2018,09,14,11,24,17.60
2018,09,14,11,25,17.70
2018,09,14,11,26,17.70
2018,09,14,11,27,17.80
2018,09,14,11,28,17.90
2018,09,14,11,29,17.90
2018,09,14,11,30,17.90
2018,09,14,11,31,17.90
2018,09,14,11,32,18.00
2018,09,14,11,33,18.10
2018,09,14,11,34,18.00
2018,09,14,11,35,17.90
2018,09,14,11,36,17.90
2018,09,14,11,37,17.90
2018,09,14,11,38,17.90
2018,09,14,11,39,17.90
2018,09,14,11,40,17.90
2018,09,14,11,41,17.90
2018,09,14,11,42,17.90
2018,09,14,11,43,17.90
2018,09,14,11,44,17.80
2018,09,14,11,45,17.80
2018,09,14,11,46,17.80
2018,09,14,11,47,17.80
2018,09,14,11,48,17.80
2018,09,14,11,49,17.80
2018,09,14,11,50,17.80
2018,09,14,11,51,17.70
2018,09,14,11,52,17.70
2018,09,14,11,53,17.70
2018,09,14,11,54,17.70
2018,09,14,11,55,17.70
2018,09,14,11,56,17.70
2018,09,14,11,57,17.70
2018,09,14,11,58,17.70
2018,09,14,11,59,17.70
2018,09,14,12,00,17.70
2018,09,14,12,01,17.60
2018,09,14,12,02,17.50
2018,09,14,12,03,17.30
2018,09,14,12,04,17.20
2018,09,14,12,05,17.00
2018,09,14,12,06,17.00
2018,09,14,12,07,16.90
2018,09,14,12,08,16.80
2018,09,14,12,09,16.80
2018,09,14,12,10,16.70
2018,09,14,12,11,16.50
2018,09,14,12,12,16.40
2018,09,14,12,13,16.20
2018,09,14,12,14,16.20
2018,09,14,12,15,16.10
2018,09,14,12,16,16.10
2018,09,14,12,17,16.10
2018,09,14,12,18,16.20
2018,09,14,12,19,16.20
2018,09,14,12,20,16.30
2018,09,14,12,21,16.30
2018,09,14,12,22,16.30
2018,09,14,12,23,16.30
2018,09,14,12,24,16.20
2018,09,14,12,25,16.20
2018,09,14,12,26,16.30
2018,09,14,12,27,16.20
2018,09,14,12,28,16.20
2018,09,14,12,29,16.30
2018,09,14,12,30,16.30
2018,09,14,12,31,16.30
2018,09,14,12,32,16.40
2018,09,14,12,33,16.40
2018,09,14,12,34,16.30
2018,09,14,12,35,16.30
2018,09,14,12,36,16.30
2018,09,14,12,37,16.30
2018,09,14,12,38,16.30
2018,09,14,12,39,16.30
2018,09,14,12,40,16.30
2018,09,14,12,41,16.30
2018,09,14,12,42,16.30
2018,09,14,12,43,16.40
2018,09,14,12,44,16.50
2018,09,14,12,45,16.60
2018,09,14,12,46,16.70
2018,09,14,12,47,16.70
2018,09,14,12,48,16.80
2018,09,14,12,49,16.90
2018,09,14,12,50,16.80
2018,09,14,12,51,16.40
2018,09,14,12,52,16.00
2018,09,14,12,53,15.80
2018,09,14,12,54,15.70
2018,09,14,12,55,15.60
2018,09,14,12,56,15.40
2018,09,14,12,57,15.20
2018,09,14,12,58,15.10
2018,09,14,12,59,15.00
2018,09,14,13,00,14.90
2018,09,14,13,01,14.90
2018,09,14,13,02,14.80
2018,09,14,13,03,14.80
2018,09,14,13,04,14.90
2018,09,14,13,05,14.90
2018,09,14,13,06,15.00
2018,09,14,13,07,15.00
2018,09,14,13,08,15.00
2018,09,14,13,09,15.00
2018,09,14,13,10,15.10
2018,09,14,13,11,15.20
2018,09,14,13,12,15.30
2018,09,14,13,13,15.40
2018,09,14,13,14,15.50
2018,09,14,13,15,15.50
2018,09,14,13,16,15.60
2018,09,14,13,17,15.50
2018,09,14,13,18,15.40
2018,09,14,13,19,15.30
2018,09,14,13,20,15.30
2018,09,14,13,21,15.20
2018,09,14,13,22,15.10
2018,09,14,13,23,15.10
2018,09,14,13,24,15.10
2018,09,14,13,25,15.10
2018,09,14,13,26,15.10
2018,09,14,13,27,15.10
2018,09,14,13,28,15.10
2018,09,14,13,29,15.10
2018,09,14,13,30,15.20
2018,09,14,13,31,15.20
2018,09,14,13,32,15.20
2018,09,14,13,33,15.20
2018,09,14,13,34,15.20
2018,09,14,13,35,15.30
2018,09,14,13,36,15.30
2018,09,14,13,37,15.20
2018,09,14,13,38,15.20
2018,09,14,13,39,15.20
2018,09,14,13,40,15.20
2018,09,14,13,41,15.20
2018,09,14,13,42,15.20
2018,09,14,13,43,15.30
2018,09,14,13,44,15.30
2018,09,14,13,45,15.30
2018,09,14,13,46,15.30
2018,09,14,13,47,15.30
2018,09,14,13,48,15.20
2018,09,14,13,49,15.10
2018,09,14,13,50,15.00
2018,09,14,13,51,15.00
2018,09,14,13,52,15.00
2018,09,14,13,53,15.00
2018,09,14,13,54,15.00
2018,09,14,13,55,15.00
2018,09,14,13,56,15.00
2018,09,14,13,57,15.10
2018,09,14,13,58,15.10
2018,09,14,13,59,15.10
2018,09,14,14,00,15.10
2018,09,14,14,01,15.10
2018,09,14,14,02,15.00
2018,09,14,14,03,15.00
2018,09,14,14,04,15.00
2018,09,14,14,05,15.00
2018,09,14,14,06,15.00
2018,09,14,14,07,15.00
2018,09,14,14,08,15.00
2018,09,14,14,09,15.10
2018,09,14,14,10,15.00
2018,09,14,14,11,15.00
2018,09,14,14,12,15.10
2018,09,14,14,13,15.10
2018,09,14,14,14,15.10
2018,09,14,14,15,15.10
2018,09,14,14,16,15.10
2018,09,14,14,17,15.10
2018,09,14,14,18,15.20
2018,09,14,14,19,15.20
2018,09,14,14,20,15.30
2018,09,14,14,21,15.40
2018,09,14,14,22,15.50
2018,09,14,14,23,15.50
2018,09,14,14,24,15.60
2018,09,14,14,25,15.60
2018,09,14,14,26,15.70
2018,09,14,14,27,15.70
2018,09,14,14,28,15.70
2018,09,14,14,29,15.80
2018,09,14,14,30,15.80
2018,09,14,14,31,15.80
2018,09,14,14,32,15.70
2018,09,14,14,33,15.70
2018,09,14,14,34,15.60
2018,09,14,14,35,15.50
2018,09,14,14,36,15.50
2018,09,14,14,37,15.50
2018,09,14,14,38,15.40
2018,09,14,14,39,15.40
2018,09,14,14,40,15.40
2018,09,14,14,41,15.40
2018,09,14,14,42,15.40
2018,09,14,14,43,15.40
2018,09,14,14,44,15.50
2018,09,14,14,45,15.50
2018,09,14,14,46,15.50
2018,09,14,14,47,15.60
2018,09,14,14,48,15.60
2018,09,14,14,49,15.60
2018,09,14,14,50,15.60
2018,09,14,14,51,15.60
2018,09,14,14,52,15.50
2018,09,14,14,53,15.50
2018,09,14,14,54,15.40
2018,09,14,14,55,15.30
2018,09,14,14,56,15.30
2018,09,14,14,57,15.30
2018,09,14,14,58,15.30
2018,09,14,14,59,15.30
2018,09,14,15,00,15.20
2018,09,14,15,01,15.10
2018,09,14,15,02,15.10
2018,09,14,15,03,15.00
2018,09,14,15,04,15.00
2018,09,14,15,05,14.80
2018,09,14,15,06,14.80
2018,09,14,15,07,14.70
2018,09,14,15,08,14.70
2018,09,14,15,09,14.70
2018,09,14,15,10,14.60
2018,09,14,15,11,14.60
2018,09,14,15,12,14.50
2018,09,14,15,13,14.50
2018,09,14,15,14,14.50
2018,09,14,15,15,14.50
2018,09,14,15,16,14.60
2018,09,14,15,17,14.60
2018,09,14,15,18,14.70
2018,09,14,15,19,14.70
2018,09,14,15,20,14.70
2018,09,14,15,21,14.80
2018,09,14,15,22,14.80
2018,09,14,15,23,14.80
2018,09,14,15,24,14.80
2018,09,14,15,25,14.80
2018,09,14,15,26,14.80
2018,09,14,15,27,14.80
2018,09,14,15,28,14.80
2018,09,14,15,29,14.80
2018,09,14,15,30,14.80
2018,09,14,15,31,14.70
2018,09,14,15,32,14.70
2018,09,14,15,33,14.60
2018,09,14,15,34,14.60
2018,09,14,15,35,14.60
2018,09,14,15,36,14.60
2018,09,14,15,37,14.60
2018,09,14,15,38,14.60
2018,09,14,15,39,14.60
2018,09,14,15,40,14.60
2018,09,14,15,41,14.60
2018,09,14,15,42,14.60
2018,09,14,15,43,14.70
2018,09,14,15,44,14.70
2018,09,14,15,45,14.70
2018,09,14,15,46,14.70
2018,09,14,15,47,14.70
2018,09,14,15,48,14.70
2018,09,14,15,49,14.70
2018,09,14,15,50,14.80
2018,09,14,15,51,14.80
2018,09,14,15,52,14.80
2018,09,14,15,53,14.80
2018,09,14,15,54,14.80
2018,09,14,15,55,14.80
2018,09,14,15,56,14.80
2018,09,14,15,57,14.90
2018,09,14,15,58,14.90
2018,09,14,15,59,14.90
2018,09,14,16,00,14.90
2018,09,14,16,01,14.90
2018,09,14,16,02,14.90
2018,09,14,16,03,14.90
2018,09,14,16,04,14.90
2018,09,14,16,05,14.90
2018,09,14,16,06,14.90
2018,09,14,16,07,14.90
2018,09,14,16,08,14.90
2018,09,14,16,09,14.90
2018,09,14,16,10,14.90
2018,09,14,16,11,14.90
2018,09,14,16,12,14.90
2018,09,14,16,13,14.90
2018,09,14,16,14,14.90
2018,09,14,16,15,14.90
2018,09,14,16,16,14.90
2018,09,14,16,17,14.90
2018,09,14,16,18,14.80
2018,09,14,16,19,14.80
2018,09,14,16,20,14.80
2018,09,14,16,21,14.80
2018,09,14,16,22,14.80
2018,09,14,16,23,14.80
2018,09,14,16,24,14.80
2018,09,14,16,25,14.90
2018,09,14,16,26,14.90
2018,09,14,16,27,14.90
2018,09,14,16,28,14.90
2018,09,14,16,29,14.90
2018,09,14,16,30,14.90
2018,09,14,16,31,14.90
2018,09,14,16,32,14.90
2018,09,14,16,33,14.90
2018,09,14,16,34,15.00
2018,09,14,16,35,15.00
2018,09,14,16,36,15.10
2018,09,14,16,37,15.10
2018,09,14,16,38,15.10
2018,09,14,16,39,15.10
2018,09,14,16,40,15.10
2018,09,14,16,41,15.10
2018,09,14,16,42,15.10
2018,09,14,16,43,15.10
2018,09,14,16,44,15.10
2018,09,14,16,45,15.10
2018,09,14,16,46,15.10
2018,09,14,16,47,15.10
2018,09,14,16,48,15.10
2018,09,14,16,49,15.10
2018,09,14,16,50,15.10
2018,09,14,16,51,15.10
2018,09,14,16,52,15.10
2018,09,14,16,53,15.20
2018,09,14,16,54,15.20
2018,09,14,16,55,15.20
2018,09,14,16,56,15.20
2018,09,14,16,57,15.20
2018,09,14,16,58,15.20
2018,09,14,16,59,15.20
2018,09,14,17,00,15.20
2018,09,14,17,01,15.20
2018,09,14,17,02,15.20
2018,09,14,17,03,15.20
2018,09,14,17,04,15.20
2018,09,14,17,05,15.20
2018,09,14,17,06,15.20
2018,09,14,17,07,15.20
2018,09,14,17,08,15.20
2018,09,14,17,09,15.20
2018,09,14,17,10,15.10
2018,09,14,17,11,15.10
2018,09,14,17,12,15.10
2018,09,14,17,13,15.10
2018,09,14,17,14,15.10
2018,09,14,17,15,15.10
2018,09,14,17,16,15.00
2018,09,14,17,17,15.00
2018,09,14,17,18,15.10
2018,09,14,17,19,15.10
2018,09,14,17,20,15.10
2018,09,14,17,21,15.10
2018,09,14,17,22,15.10
2018,09,14,17,23,15.10
2018,09,14,17,24,15.20
2018,09,14,17,25,15.10
2018,09,14,17,26,15.10
2018,09,14,17,27,15.10
2018,09,14,17,28,15.10
2018,09,14,17,29,15.10